| time (UTC) | temp C | wind direction | speed KPH | gust KPH | rain 1hr cm | rain 24hr cm | rain mn cm | humidity % | barometer mb |
| 20260510104557 | 7 | 360 | 0.0 | 0.0 | 0.00 | 0.00 | 0.00 | 95 | 1011.2 |
| 20260510103018 | 7 | 360 | 0.0 | 0.0 | 0.00 | 0.00 | 0.00 | 95 | 1011.0 |
| 20260510101547 | 7 | 360 | 0.0 | 0.0 | 0.00 | 0.00 | 0.00 | 95 | 1010.8 |
| 20260510100109 | 7 | 360 | 0.0 | 0.0 | 0.00 | 0.00 | 0.00 | 95 | 1010.5 |
| 20260510094518 | 7 | 360 | 0.0 | 0.0 | 0.00 | 0.00 | 0.00 | 95 | 1010.4 |
| 20260510093044 | 7 | 360 | 0.0 | 0.0 | 0.00 | 0.00 | 0.00 | 94 | 1010.3 |
| 20260510091558 | 8 | 360 | 0.0 | 0.0 | 0.00 | 0.00 | 0.00 | 94 | 1010.2 |
| 20260510090004 | 8 | 360 | 0.0 | 0.0 | 0.00 | 0.00 | 0.00 | 94 | 1010.2 |
| 20260510084528 | 8 | 360 | 0.0 | 0.0 | 0.00 | 0.00 | 0.00 | 94 | 1010.1 |
| 20260510083030 | 9 | 360 | 0.0 | 0.0 | 0.00 | 0.00 | 0.00 | 93 | 1010.0 |
| 20260510081550 | 10 | 360 | 0.0 | 0.0 | 0.00 | 0.00 | 0.00 | 93 | 1009.9 |
| 20260510080053 | 10 | 360 | 0.0 | 0.0 | 0.00 | 0.00 | 0.00 | 93 | 1009.9 |
| 20260510074506 | 11 | 360 | 0.0 | 0.0 | 0.00 | 0.00 | 0.00 | 94 | 1009.9 |
| 20260510073031 | 11 | 360 | 0.0 | 3.2 | 0.00 | 0.00 | 0.00 | 94 | 1009.6 |
| 20260510071506 | 11 | 360 | 0.0 | 4.8 | 0.00 | 0.00 | 0.00 | 94 | 1009.5 |
| 20260510070006 | 10 | 360 | 0.0 | 1.6 | 0.00 | 0.00 | 0.00 | 93 | 1009.5 |
| 20260510064523 | 11 | 360 | 0.0 | 0.0 | 0.00 | 0.00 | 0.00 | 93 | 1009.4 |
| 20260510063045 | 11 | 360 | 0.0 | 3.2 | 0.00 | 0.00 | 0.00 | 93 | 1009.4 |
| 20260510061514 | 11 | 360 | 0.0 | 0.0 | 0.00 | 0.00 | 0.00 | 91 | 1009.5 |
| 20260510060010 | 11 | 360 | 0.0 | 1.6 | 0.00 | 0.00 | 0.00 | 90 | 1009.3 |
| 20260510054526 | 12 | 360 | 0.0 | 4.8 | 0.00 | 0.00 | 0.00 | 90 | 1009.2 |
| 20260510053046 | 13 | 360 | 0.0 | 3.2 | 0.00 | 0.00 | 0.00 | 90 | 1009.3 |
| 20260510051508 | 13 | 360 | 0.0 | 3.2 | 0.00 | 0.00 | 0.00 | 90 | 1009.3 |
| 20260510050015 | 13 | 360 | 0.0 | 3.2 | 0.00 | 0.00 | 0.00 | 90 | 1009.4 |
| 20260510044537 | 13 | 360 | 0.0 | 1.6 | 0.00 | 0.00 | 0.00 | 90 | 1009.3 |
| 20260510043014 | 13 | 360 | 0.0 | 0.0 | 0.00 | 0.00 | 0.00 | 87 | 1009.3 |
| 20260510041520 | 14 | 360 | 0.0 | 0.0 | 0.00 | 0.00 | 0.00 | 86 | 1009.1 |
| 20260510040023 | 15 | 360 | 0.0 | 3.2 | 0.00 | 0.00 | 0.00 | 84 | 1009.2 |
| 20260510034542 | 15 | 360 | 0.0 | 3.2 | 0.00 | 0.00 | 0.00 | 84 | 1009.1 |
| 20260510033007 | 13 | 360 | 0.0 | 3.2 | 0.00 | 0.00 | 0.00 | 88 | 1008.9 |
| 20260510031538 | 13 | 360 | 0.0 | 1.6 | 0.00 | 0.00 | 0.00 | 89 | 1008.8 |
| 20260510030027 | 12 | 360 | 0.0 | 0.0 | 0.00 | 0.00 | 0.00 | 89 | 1008.7 |
| 20260510024557 | 13 | 360 | 0.0 | 0.0 | 0.00 | 0.00 | 0.00 | 88 | 1008.6 |
| 20260510023019 | 13 | 360 | 0.0 | 0.0 | 0.00 | 0.00 | 0.00 | 87 | 1008.4 |
| 20260510021541 | 13 | 360 | 0.0 | 0.0 | 0.00 | 0.00 | 0.00 | 86 | 1008.4 |
| 20260510020049 | 13 | 360 | 0.0 | 0.0 | 0.00 | 0.00 | 0.00 | 85 | 1008.1 |
| 20260510014515 | 14 | 360 | 0.0 | 0.0 | 0.00 | 0.00 | 0.00 | 84 | 1007.9 |
| 20260510013030 | 15 | 360 | 0.0 | 0.0 | 0.00 | 0.00 | 0.00 | 82 | 1007.8 |
| 20260510011503 | 15 | 360 | 0.0 | 0.0 | 0.00 | 0.00 | 0.00 | 79 | 1007.5 |
| 20260510010057 | 16 | 360 | 0.0 | 0.0 | 0.00 | 0.00 | 0.00 | 77 | 1007.4 |
| 20260510004523 | 17 | 360 | 0.0 | 0.0 | 0.00 | 0.00 | 0.00 | 74 | 1007.2 |
| 20260510003101 | 18 | 360 | 0.0 | 0.0 | 0.00 | 0.00 | 0.00 | 70 | 1007.0 |
| 20260510001515 | 19 | 360 | 0.0 | 0.0 | 0.00 | 0.00 | 0.00 | 66 | 1006.9 |
| 20260510000013 | 20 | 360 | 0.0 | 0.0 | 0.00 | 0.00 | 0.00 | 62 | 1006.7 |
| 20260509234529 | 21 | 360 | 0.0 | 4.8 | 0.00 | 0.00 | 0.00 | 56 | 1006.6 |
| 20260509233051 | 22 | 360 | 0.0 | 1.6 | 0.00 | 0.00 | 0.00 | 53 | 1006.6 |
| 20260509231518 | 23 | 233 | 0.0 | 6.4 | 0.00 | 0.00 | 0.00 | 51 | 1006.5 |
| 20260509230025 | 23 | 215 | 0.0 | 6.4 | 0.00 | 0.00 | 0.00 | 49 | 1006.5 |
| 20260509224545 | 24 | 49 | 0.0 | 9.7 | 0.00 | 0.00 | 0.00 | 49 | 1006.6 |
| 20260509223009 | 24 | 135 | 3.2 | 8.0 | 0.00 | 0.00 | 0.00 | 45 | 1006.5 |
| 20260509221515 | 24 | 260 | 1.6 | 11.3 | 0.00 | 0.00 | 0.00 | 47 | 1006.5 |
| 20260509220017 | 23 | 155 | 1.6 | 8.0 | 0.00 | 0.00 | 0.00 | 48 | 1006.4 |
| 20260509214536 | 23 | 205 | 1.6 | 11.3 | 0.00 | 0.00 | 0.00 | 49 | 1006.5 |
| 20260509213003 | 24 | 191 | 3.2 | 14.5 | 0.00 | 0.00 | 0.00 | 47 | 1006.5 |
| 20260509211520 | 24 | 207 | 1.6 | 8.0 | 0.00 | 0.00 | 0.00 | 50 | 1006.5 |
| 20260509210034 | 23 | 188 | 1.6 | 16.1 | 0.00 | 0.00 | 0.00 | 50 | 1006.3 |
| 20260509204557 | 23 | 186 | 1.6 | 9.7 | 0.00 | 0.00 | 0.00 | 52 | 1006.3 |
| 20260509204505 | 23 | 155 | 1.6 | 9.7 | 0.00 | 0.00 | 0.00 | 52 | 1006.3 |
| 20260509203024 | 23 | 257 | 1.6 | 11.3 | 0.00 | 0.00 | 0.00 | 52 | 1006.2 |
| 20260509201550 | 23 | 360 | 3.2 | 16.1 | 0.00 | 0.00 | 0.00 | 49 | 1006.2 |
| 20260509200053 | 24 | 328 | 3.2 | 12.9 | 0.00 | 0.00 | 0.00 | 47 | 1006.3 |
| 20260509194559 | 23 | 207 | 3.2 | 11.3 | 0.00 | 0.00 | 0.00 | 51 | 1006.5 |
| 20260509193027 | 23 | 271 | 6.4 | 12.9 | 0.00 | 0.00 | 0.00 | 50 | 1006.8 |
| 20260509191531 | 23 | 360 | 1.6 | 9.7 | 0.00 | 0.00 | 0.00 | 56 | 1006.9 |
| 20260509190039 | 22 | 165 | 3.2 | 9.7 | 0.00 | 0.00 | 0.00 | 54 | 1007.4 |
| 20260509184551 | 23 | 360 | 1.6 | 8.0 | 0.00 | 0.00 | 0.00 | 56 | 1007.5 |
| 20260509183026 | 22 | 360 | 1.6 | 11.3 | 0.00 | 0.00 | 0.00 | 57 | 1007.8 |
| 20260509181543 | 22 | 360 | 3.2 | 14.5 | 0.00 | 0.00 | 0.00 | 58 | 1008.0 |
| 20260509180037 | 21 | 360 | 4.8 | 16.1 | 0.00 | 0.00 | 0.00 | 57 | 1008.1 |
| 20260509174506 | 22 | 360 | 6.4 | 12.9 | 0.00 | 0.00 | 0.00 | 57 | 1008.1 |
| 20260509173027 | 21 | 360 | 3.2 | 14.5 | 0.00 | 0.00 | 0.00 | 60 | 1008.3 |
| 20260509171548 | 21 | 360 | 4.8 | 14.5 | 0.00 | 0.00 | 0.00 | 64 | 1008.5 |
| 20260509170051 | 20 | 360 | 3.2 | 11.3 | 0.00 | 0.00 | 0.00 | 64 | 1008.6 |
| 20260509164514 | 20 | 360 | 1.6 | 11.3 | 0.00 | 0.00 | 0.00 | 67 | 1008.6 |
| 20260509163044 | 20 | 360 | 3.2 | 14.5 | 0.00 | 0.00 | 0.00 | 65 | 1008.7 |
| 20260509161504 | 20 | 360 | 3.2 | 12.9 | 0.00 | 0.00 | 0.00 | 65 | 1008.8 |
| 20260509160010 | 20 | 360 | 3.2 | 22.5 | 0.00 | 0.00 | 0.00 | 67 | 1008.8 |
| 20260509154517 | 18 | 360 | 1.6 | 12.9 | 0.00 | 0.00 | 0.00 | 68 | 1009.1 |
| 20260509153048 | 19 | 360 | 6.4 | 19.3 | 0.00 | 0.00 | 0.00 | 67 | 1009.3 |
| 20260509151508 | 19 | 360 | 3.2 | 12.9 | 0.00 | 0.00 | 0.00 | 67 | 1009.3 |
| 20260509150023 | 18 | 360 | 6.4 | 14.5 | 0.00 | 0.00 | 0.00 | 66 | 1009.6 |
| 20260509144550 | 18 | 360 | 4.8 | 16.1 | 0.00 | 0.00 | 0.00 | 68 | 1009.5 |
| 20260509143017 | 17 | 360 | 1.6 | 8.0 | 0.00 | 0.00 | 0.00 | 70 | 1009.8 |
| 20260509141535 | 16 | 360 | 3.2 | 9.7 | 0.00 | 0.00 | 0.00 | 72 | 1010.2 |
| 20260509140033 | 15 | 360 | 0.0 | 8.0 | 0.00 | 0.00 | 0.00 | 75 | 1010.3 |
| 20260509134602 | 15 | 360 | 1.6 | 8.0 | 0.00 | 0.00 | 0.00 | 73 | 1010.3 |
| 20260509134505 | 15 | 360 | 1.6 | 8.0 | 0.00 | 0.00 | 0.00 | 73 | 1010.3 |
| 20260509133033 | 15 | 360 | 3.2 | 11.3 | 0.00 | 0.00 | 0.00 | 72 | 1010.4 |
| 20260509131552 | 15 | 360 | 1.6 | 9.7 | 0.00 | 0.00 | 0.00 | 72 | 1010.5 |
| 20260509130045 | 14 | 360 | 0.0 | 6.4 | 0.00 | 0.00 | 0.00 | 75 | 1010.5 |
| 20260509124514 | 13 | 360 | 1.6 | 6.4 | 0.00 | 0.00 | 0.00 | 76 | 1010.4 |
| 20260509123033 | 13 | 360 | 0.0 | 6.4 | 0.00 | 0.00 | 0.00 | 77 | 1010.5 |
| 20260509121504 | 12 | 360 | 1.6 | 6.4 | 0.00 | 0.00 | 0.00 | 78 | 1010.5 |
| 20260509120007 | 12 | 360 | 1.6 | 6.4 | 0.00 | 0.00 | 0.00 | 79 | 1010.5 |
| 20260509114532 | 11 | 360 | 0.0 | 3.2 | 0.00 | 0.00 | 0.00 | 80 | 1010.6 |
| 20260509113002 | 11 | 360 | 0.0 | 1.6 | 0.00 | 0.00 | 0.00 | 80 | 1010.6 |
| 20260509111520 | 10 | 360 | 1.6 | 8.0 | 0.00 | 0.00 | 0.00 | 80 | 1010.6 |
| 20260509110033 | 10 | 360 | 0.0 | 6.4 | 0.00 | 0.00 | 0.00 | 81 | 1010.5 |